Startseite
Über Mich
AHP4
Galerie
Sehschlangen
Tourenbuch
Bookmarks
Elektronik
Bewertung
Geschichten
[Tagesmessung] [Jahreswerte] [Information]

Messwerte vom 21.03.2022

Die letzten Messwerte von 23:58:47 Uhr:
KategorieMesswert
Temperatur [°C]1
Luftdruck [mBar]1017
Sonneneinstrahlung0
Wind [km/h]0 aus Nordost
Niederschlag [l/m²]0
rel.Luftfeucht.64.4%
CO2 [ppm]521

Diagramme
Messwerte vom 21.03.2022
Tagesaggregation
KategorieMinimumMaximumSchnittSumme
Temperatur [°C]1177.0125
Luftdruck [mBar]101410191017.1583
Sonneneinstrahlung246108.0583
Wind [km/h]24
rF [%]2865.147.8
Niederschlag [l/m²]0
CO2 [ppm]401939641.4
Einordnung alsVegetationstag

Messungen an benachbarten Tagen: Zur Jahresaggregation 2022
Tabelle aller Messwerte
UhrzeitTemperatur [°C]Luftdruck [mBar]SonneWind [km/h]RichtungRegen [l/m²]rF [%]CO2 [ppm]
00:01:46 5 1017 0 7 O 0 44.3 892
00:04:46 5 1017 0 4 NO 0 44.4 896
00:07:47 5 1017 0 2 NW 0 44.4 894
00:10:47 5 1017 0 5 NO 0 44.6 890
00:13:45 5 1017 0 4 W 0 44.9 893
00:16:47 5 1017 0 8 NO 0 44.9 889
00:19:45 5 1014 0 5 S 0 45.2 906
00:22:49 5 1017 0 3 SO 0 45.3 889
00:25:46 5 1017 0 5 0 45.5 886
00:28:49 5 1017 0 3 SO 0 45.7 880
00:31:48 5 1017 0 5 O 0 45.6 882
00:34:47 5 1017 0 3 NW 0 45.5 882
00:37:47 5 1017 0 4 W 0 45.6 878
00:40:46 5 1017 0 2 SW 0 46 872
00:43:49 5 1017 0 10 NO 0 46.2 877
00:46:45 5 1017 0 7 N 0 46.3 882
00:49:46 4 1017 0 5 NO 0 46.9 882
00:52:46 4 1017 0 5 NO 0 47.3 876
00:55:47 4 1017 0 1 0 47.6 880
00:58:47 4 1017 0 1 NO 0 48 879
01:01:49 4 1017 0 3 S 0 48.2 880
01:04:49 4 1017 0 3 NW 0 48.6 873
01:07:48 4 1017 0 3 O 0 48.8 874
01:10:47 4 1017 0 4 NW 0 48.7 873
01:13:44 4 1017 0 2 O 0 48.5 876
01:16:45 4 1017 0 5 S 0 48.2 879
01:19:47 4 1017 0 0 SW 0 48.3 876
01:22:44 4 1017 0 7 NO 0 48.1 884
01:25:47 4 1017 0 2 NW 0 48.6 880
01:28:46 4 1017 0 1 W 0 48.7 876
01:31:46 4 1017 0 2 S 0 48.7 876
01:34:46 4 1017 0 0 S 0 48.8 876
01:37:46 4 1017 0 1 NO 0 49.2 873
01:40:46 4 1017 0 3 NO 0 49.3 871
01:43:45 4 1017 0 1 N 0 49.6 866
01:46:49 4 1017 0 2 NO 0 50.4 859
01:49:46 4 1017 0 3 SW 0 50.4 854
01:52:47 4 1017 0 1 0 50.5 854
01:55:46 3 1017 0 2 SO 0 50.8 849
01:58:48 3 1017 0 4 O 0 50.9 853
02:01:47 4 1017 0 6 SO 0 51 852
02:04:48 4 1017 0 3 SW 0 51 845
02:07:45 3 1017 0 2 O 0 51.1 845
02:10:47 3 1017 0 1 SO 0 51.6 845
02:13:47 3 1017 0 2 NO 0 52 850
02:16:47 3 1017 0 2 NW 0 52.5 853
02:19:49 3 1017 0 1 SO 0 52.5 857
02:22:47 3 1017 0 3 NW 0 52.6 848
02:25:47 3 1017 0 3 NO 0 52.6 853
02:28:47 3 1017 0 0 NW 0 52.8 845
02:31:45 3 1017 0 1 O 0 52.8 835
02:34:48 3 1017 0 1 NO 0 53.4 833
02:37:47 3 1017 0 2 NO 0 53.6 836
02:40:48 3 1017 0 3 O 0 53.8 837
02:43:48 3 1017 0 0 NO 0 53.8 842
02:46:47 3 1017 0 4 N 0 53.7 841
02:49:48 3 1017 0 2 NO 0 53.8 839
02:52:48 3 1017 0 1 SO 0 54.4 834
02:55:45 3 1017 0 4 O 0 54.7 837
02:58:48 3 1017 0 2 SO 0 55 826
03:01:48 3 1017 0 2 SO 0 55.4 832
03:04:46 3 1017 0 1 NO 0 55.3 826
03:07:49 3 1017 0 0 S 0 55.2 826
03:10:47 3 1017 0 0 NO 0 55.7 821
03:13:46 2 1017 0 0 NW 0 56.1 823
03:16:46 3 1017 0 0 O 0 56.4 819
03:19:45 3 1017 0 1 N 0 56.5 823
03:22:47 3 1017 0 1 NW 0 56.3 827
03:25:49 3 1017 0 0 NO 0 56.2 826
03:28:47 3 1017 0 1 O 0 56.1 825
03:31:46 3 1017 0 4 O 0 56.1 828
03:34:45 3 1017 0 2 O 0 56.3 824
03:37:49 3 1017 0 1 NW 0 56 829
03:40:48 3 1017 0 2 SO 0 56 813
03:43:45 3 1017 0 1 O 0 56 820
03:46:48 3 1017 0 0 W 0 56.1 818
03:49:48 3 1017 0 3 O 0 56.2 822
03:52:49 3 1017 0 2 NO 0 56.2 828
03:55:47 2 1017 0 0 SO 0 56.1 823
03:58:47 2 1017 0 3 NW 0 56.5 824
04:01:46 2 1017 0 2 N 0 57 816
04:04:49 2 1017 0 1 SO 0 57.3 816
04:07:48 2 1017 0 1 NO 0 57.2 823
04:10:45 2 1017 0 2 O 0 57.3 816
04:13:45 2 1017 0 1 SO 0 57.2 814
04:16:47 2 1017 0 2 NO 0 57.2 814
04:19:48 2 1017 0 1 NO 0 57.4 811
04:22:45 2 1017 0 1 O 0 57.4 815
04:25:48 2 1017 0 1 SO 0 57.8 813
04:28:46 2 1017 0 2 O 0 58.1 811
04:31:45 2 1017 0 1 O 0 58.3 813
04:34:47 2 1017 0 0 S 0 58.3 814
04:37:48 2 1017 0 2 SO 0 58.4 812
04:40:45 2 1017 0 2 NO 0 58.3 810
04:43:46 2 1017 0 1 O 0 58.3 806
04:46:45 2 1017 0 0 SO 0 58.3 803
04:49:46 2 1017 0 4 NO 0 58.3 803
04:52:46 2 1017 0 3 NW 0 58.5 797
04:55:47 2 1017 0 1 SO 0 58.6 798
04:58:46 2 1017 0 3 O 0 58.8 807
05:01:47 2 1017 0 0 NO 0 59.1 817
05:04:46 2 1017 0 1 SO 0 59.3 808
05:07:46 2 1017 0 1 S 0 59.5 800
05:10:48 2 1017 0 1 W 0 59.6 800
05:13:47 2 1017 0 2 SO 0 59.2 805
05:16:44 2 1017 0 1 N 0 59.4 807
05:19:46 2 1017 0 2 SO 0 59.7 806
05:22:45 2 1017 0 0 O 0 59.6 800
05:25:46 2 1017 0 1 NO 0 59.5 799
05:28:46 2 1017 0 1 N 0 59.7 800
05:31:48 2 1017 0 2 SO 0 59.9 802
05:34:47 2 1017 0 0 O 0 60 806
05:37:45 2 1017 0 0 NW 0 60 812
05:40:48 2 1017 0 1 NO 0 60.4 806
05:43:47 2 1017 0 0 SO 0 60.6 806
05:46:46 1 1017 0 2 O 0 60.5 798
05:49:46 2 1017 0 2 NW 0 60.9 800
05:52:45 2 1017 0 0 O 0 60.8 808
05:55:45 2 1017 4 1 W 0 60.5 808
05:58:47 1 1017 7 1 S 0 60.5 793
06:01:47 1 1017 12 1 SO 0 60.9 776
06:04:46 1 1017 19 1 O 0 60.9 792
06:07:46 1 1017 29 0 O 0 61 802
06:10:46 1 1017 39 1 NO 0 61.1 806
06:13:51 1 1017 49 0 NO 0 61.2 801
06:16:49 1 1017 60 0 O 0 61.2 780
06:19:47 1 1017 71 0 NO 0 61.4 780
06:22:47 1 1017 81 0 NO 0 61.9 782
06:25:48 1 1017 92 0 NO 0 62.2 780
06:28:47 1 1017 103 1 SO 0 62.5 780
06:31:50 1 1017 113 0 SO 0 62.4 785
06:34:49 1 1017 122 0 NO 0 63.2 779
06:37:49 1 1017 131 0 NO 0 63.3 776
06:40:47 1 1017 138 0 NO 0 63.2 779
06:43:46 1 1017 145 0 O 0 63.1 776
06:46:47 1 1017 150 0 O 0 63.2 771
06:49:48 1 1017 155 1 N 0 63.3 778
06:52:47 1 1017 160 0 O 0 63.7 779
06:55:47 1 1017 164 0 O 0 64 785
06:58:46 1 1017 167 0 O 0 63.7 785
07:01:47 1 1017 170 1 S 0 63.4 782
07:04:48 1 1017 173 0 NO 0 63.2 773
07:07:47 1 1017 175 0 NO 0 63.4 767
07:10:51 1 1017 178 0 NO 0 63.5 766
07:13:47 1 1018 180 0 SO 0 64 758
07:16:47 1 1017 181 0 O 0 64.2 756
07:19:49 1 1018 182 0 SO 0 63.8 751
07:22:47 1 1017 182 0 N 0 63.6 748
07:25:46 1 1017 183 0 W 0 63.6 759
07:28:46 2 1017 184 1 O 0 63.7 776
07:31:49 2 1018 186 0 NO 0 63.8 789
07:34:48 2 1017 187 0 NO 0 63.2 791
07:37:49 2 1017 188 0 S 0 63 785
07:40:46 2 1017 189 1 O 0 62.8 796
07:43:47 2 1018 190 2 O 0 62.5 796
07:46:46 3 1017 190 1 O 0 62.2 808
07:49:48 3 1018 191 1 SO 0 61.9 818
07:52:49 3 1018 192 2 SO 0 61.6 834
07:55:49 3 1017 192 2 NO 0 61.3 835
07:58:46 3 1018 193 3 O 0 61.1 836
08:01:52 3 1018 194 3 NW 0 60.8 848
08:04:49 3 1018 194 4 SO 0 59.9 860
08:07:48 3 1017 194 3 NO 0 58.9 864
08:10:49 4 1018 195 1 NW 0 58.6 864
08:13:47 4 1017 195 0 NO 0 58.2 863
08:16:48 4 1018 196 4 O 0 57.6 863
08:19:48 4 1018 196 7 O 0 56.8 861
08:22:50 4 1018 196 5 S 0 56.1 856
08:25:47 4 1017 196 1 W 0 56 867
08:28:50 4 1018 197 2 SW 0 56.5 866
08:31:49 4 1018 198 2 NO 0 56.1 871
08:34:47 4 1018 199 0 N 0 56.1 869
08:37:49 4 1018 199 4 N 0 56.2 867
08:40:48 4 1018 199 1 SO 0 56.2 869
08:43:50 4 1018 200 5 SW 0 56 872
08:46:49 5 1018 199 6 SO 0 55.6 881
08:49:47 5 1017 200 1 W 0 54.2 875
08:52:48 5 1018 200 2 O 0 54.3 884
08:55:51 5 1018 200 3 SO 0 54.1 884
08:58:48 5 1017 200 2 N 0 53.8 890
09:01:48 5 1018 201 3 NO 0 53.9 888
09:04:50 5 1018 201 10 SO 0 53.1 888
09:07:49 5 1019 200 4 S 0 52.3 889
09:10:49 5 1018 200 3 N 0 52.6 890
09:13:48 5 1018 200 4 S 0 52.9 902
09:16:49 5 1018 201 2 SO 0 53 903
09:19:49 5 1017 201 4 SO 0 52.8 909
09:22:49 5 1019 201 1 SW 0 52 902
09:25:48 6 1018 201 3 SO 0 51.8 911
09:28:48 6 1018 202 1 N 0 51.5 909
09:31:49 6 1018 202 1 SO 0 51.3 920
09:34:47 6 1018 203 3 N 0 50.3 920
09:37:51 6 1019 203 3 W 0 50.9 920
09:40:47 6 1018 204 1 NW 0 51 913
09:43:52 6 1018 205 4 SW 0 50.7 902
09:46:49 6 1018 206 5 SO 0 49.8 897
09:49:52 7 1017 206 12 NW 0 49.6 913
09:52:47 7 1018 206 2 N 0 49.3 920
09:55:48 7 1018 207 2 SO 0 49 929
09:58:48 7 1018 207 2 0 48.2 930
10:01:49 7 1018 208 1 O 0 48.3 937
10:04:47 7 1018 207 2 N 0 47.9 939
10:07:51 7 1018 209 7 NO 0 47.8 926
10:10:46 7 1017 210 4 NO 0 47.6 912
10:13:46 7 1018 210 3 O 0 47.3 897
10:16:47 8 1018 210 5 NW 0 46.6 926
10:19:49 8 1018 210 5 NO 0 46.7 933
10:22:48 8 1018 210 3 SO 0 46.5 934
10:25:48 8 1018 210 3 SW 0 45.9 931
10:28:49 8 1018 211 8 S 0 45.7 937
10:31:47 8 1018 211 9 NO 0 45.1 936
10:34:47 8 1018 211 4 S 0 44.2 935
10:37:50 8 1018 211 5 SO 0 44.4 919
10:40:47 8 1018 211 2 SO 0 45 922
10:43:50 8 1018 212 24 S 0 44.7 924
10:46:47 9 1018 211 11 SO 0 44.3 908
10:49:48 9 1018 212 3 N 0 44.7 922
10:52:50 9 1018 212 8 SW 0 44 915
10:55:47 9 1018 213 4 0 44.1 794
10:58:46 9 1018 213 3 O 0 43.8 724
11:01:49 9 1017 213 9 S 0 43.2 821
11:04:45 9 1017 213 3 0 42.3 873
11:07:48 9 1018 213 2 O 0 42.8 885
11:10:47 10 1018 214 6 O 0 43.2 876
11:13:47 10 1017 214 3 NW 0 41.9 874
11:16:46 10 1018 214 6 S 0 41.9 873
11:19:48 10 1018 214 14 S 0 42 874
11:22:49 11 1017 215 3 SO 0 43.2 874
11:25:49 11 1018 215 3 N 0 41.9 877
11:28:48 11 1017 215 4 S 0 41.4 876
11:31:48 11 1017 215 11 O 0 42.1 878
11:34:32 10 1018 216 4 NW 0 40 888
11:37:49 12 1018 216 8 O 0 37.7 882
11:40:47 12 1018 216 6 S 0 37.5 884
11:43:47 12 1018 217 2 W 0 37.7 881
11:46:49 13 1017 217 11 S 0 39 883
11:49:47 13 1017 217 2 SO 0 36.9 885
11:52:50 13 1017 218 9 S 0 36 879
11:55:47 13 1018 218 5 O 0 35.5 603
11:58:49 13 1017 218 6 S 0 34.8 598
12:01:48 13 1017 219 13 S 0 35.3 607
12:04:48 14 1018 219 2 S 0 35 612
12:07:46 14 1017 220 4 S 0 34.9 621
12:10:47 14 1017 220 1 0 34.8 624
12:13:51 14 1017 220 13 SO 0 34.4 601
12:16:49 14 1017 221 11 SO 0 33.5 568
12:19:48 14 1017 221 2 N 0 32.8 545
12:22:50 14 1017 200 6 SO 0 33 508
12:25:51 15 1017 201 9 SO 0 33.8 405
12:28:50 15 1018 202 8 SO 0 33.2 407
12:31:51 15 1017 203 7 SO 0 32.8 405
12:34:47 16 1018 203 5 SO 0 33.4 404
12:37:31 14 1017 204 6 O 0 40 404
12:40:47 16 1017 204 3 O 0 30.8 404
12:43:51 17 1018 206 11 SO 0 30.9 405
12:46:45 16 1017 207 2 S 0 30.1 407
12:49:50 16 1018 209 4 S 0 30.1 405
12:52:47 16 1017 210 3 SO 0 30.7 404
12:55:50 16 1018 210 4 S 0 31.1 404
12:58:49 16 1017 229 11 S 0 31 404
13:01:49 16 1018 230 4 O 0 28 405
13:04:47 16 1017 230 4 SO 0 30.7 404
13:07:48 16 1017 231 16 S 0 31.4 407
13:10:47 17 1017 231 2 S 0 30.8 404
13:13:47 17 1017 231 3 S 0 30.7 407
13:16:48 16 1018 231 5 W 0 30.4 407
13:19:47 16 1017 232 3 SW 0 31.1 405
13:22:47 16 1017 232 4 O 0 31 407
13:25:49 16 1017 232 7 O 0 30.4 406
13:28:49 15 1017 232 4 SO 0 29.6 407
13:31:48 15 1017 232 4 SO 0 30.9 404
13:34:47 15 1017 233 9 SO 0 32.1 404
13:37:47 16 1017 235 7 O 0 30.4 407
13:40:47 16 1017 236 0 N 0 30.3 407
13:43:49 16 1017 236 12 S 0 31.9 404
13:46:49 17 1017 237 9 SO 0 32.5 404
13:49:49 17 1017 241 3 SO 0 31.7 404
13:52:46 17 1017 241 4 0 31.4 407
13:55:46 17 1017 242 3 N 0 30.8 404
13:58:50 16 1017 242 8 SO 0 30.5 404
14:01:48 16 1017 242 2 SO 0 30.4 404
14:04:48 15 1017 243 4 O 0 31.9 407
14:07:46 15 1017 243 2 SO 0 32.8 406
14:10:47 16 1017 243 2 N 0 32.3 406
14:13:50 17 1017 244 8 S 0 31.7 407
14:16:48 17 1017 244 3 S 0 30.9 404
14:19:49 17 1017 244 4 SO 0 30.2 406
14:22:51 17 1017 244 6 SW 0 30.3 404
14:25:48 17 1017 244 3 S 0 30.6 407
14:28:48 17 1017 244 3 SO 0 30.5 407
14:31:47 16 1017 245 5 S 0 31 407
14:34:48 16 1017 245 2 NO 0 30.5 406
14:37:47 16 1017 245 13 SO 0 30 406
14:40:49 16 1017 245 10 SO 0 31 401
14:43:47 17 1017 245 5 SO 0 30.5 406
14:46:48 17 1017 245 7 S 0 30.3 404
14:49:48 16 1017 245 5 SW 0 30 407
14:52:48 16 1017 245 5 O 0 29.5 407
14:55:47 16 1017 245 9 O 0 28.9 404
14:58:49 16 1017 245 2 SO 0 30.6 407
15:01:46 16 1017 245 5 O 0 31.5 407
15:04:47 16 1017 245 16 O 0 30.6 404
15:07:48 16 1017 245 3 O 0 29.9 406
15:10:48 16 1017 245 10 S 0 29.5 407
15:13:49 16 1017 246 7 S 0 30.5 407
15:16:48 16 1017 246 2 NO 0 30.6 407
15:19:50 16 1017 246 2 SO 0 31.2 406
15:22:48 16 1017 246 7 NO 0 32 407
15:25:50 16 1017 245 6 SO 0 31.8 410
15:28:48 16 1017 246 4 S 0 30.8 413
15:31:49 17 1017 246 4 SO 0 29.1 425
15:34:48 16 1017 246 3 O 0 28.9 433
15:37:47 16 1017 246 9 S 0 29.9 436
15:40:47 16 1017 246 7 S 0 30.5 434
15:43:48 16 1017 245 4 NO 0 30.5 442
15:46:47 16 1017 245 8 SO 0 30.2 442
15:49:49 16 1017 245 2 SO 0 30.3 436
15:52:48 16 1017 245 10 S 0 30.8 431
15:55:47 16 1017 244 9 SO 0 30.8 437
15:58:46 16 1017 244 2 S 0 30.6 440
16:01:48 15 1017 244 5 SW 0 31 445
16:04:47 15 1017 243 4 S 0 31.2 417
16:07:47 15 1017 243 3 O 0 32.1 404
16:10:47 15 1017 244 2 O 0 31.4 405
16:13:47 15 1017 240 6 SO 0 31.7 437
16:16:48 15 1017 241 5 O 0 32 448
16:19:48 15 1017 242 9 NO 0 32.1 452
16:22:47 15 1016 242 4 S 0 32.1 459
16:25:48 15 1017 238 0 0 32.4 463
16:28:48 15 1017 241 4 W 0 32.4 460
16:31:46 14 1017 242 3 S 0 32.3 457
16:34:49 14 1017 241 3 SW 0 32.4 460
16:37:49 14 1017 198 2 SW 0 32.5 431
16:40:47 14 1017 196 4 O 0 32.8 405
16:43:48 14 1017 195 2 NW 0 32.7 404
16:46:49 14 1017 194 1 SW 0 33.3 408
16:49:46 14 1017 192 1 S 0 33.4 404
16:52:48 14 1017 190 3 W 0 32.8 407
16:55:48 14 1017 189 4 W 0 33 402
16:58:47 14 1017 237 4 S 0 33.7 407
17:01:49 13 1017 237 2 S 0 33.8 407
17:04:47 13 1017 235 1 O 0 34.1 407
17:07:53 13 1017 235 0 SO 0 34.2 404
17:10:48 13 1017 233 3 N 0 34.3 407
17:13:47 13 1017 231 0 O 0 34.6 405
17:16:49 13 1017 231 3 W 0 34.3 407
17:19:46 12 1017 231 1 SW 0 34.5 406
17:22:47 12 1017 225 1 O 0 35.3 404
17:25:49 12 1017 224 3 NO 0 35.6 406
17:28:46 12 1017 223 2 O 0 35.7 404
17:31:48 12 1017 220 1 NO 0 35.9 406
17:34:48 12 1017 219 1 NO 0 36.4 404
17:37:46 11 1017 217 1 N 0 36.5 404
17:40:45 11 1017 215 3 N 0 36.8 407
17:43:46 11 1017 213 3 S 0 36.9 404
17:46:48 11 1017 210 0 NO 0 36.6 407
17:49:48 11 1017 207 2 SO 0 37 407
17:52:47 11 1017 205 0 SW 0 37.8 405
17:55:49 10 1017 202 0 O 0 38.4 405
17:58:47 10 1017 198 1 O 0 38.5 406
18:01:50 10 1017 194 3 SO 0 38.7 404
18:04:47 10 1017 189 2 O 0 38.7 405
18:07:48 10 1017 184 0 NO 0 38.9 404
18:10:46 10 1017 177 0 NO 0 38.8 404
18:13:47 10 1017 170 1 SO 0 39.1 404
18:16:47 9 1017 162 0 NO 0 39.6 407
18:19:49 9 1017 152 2 NW 0 39.7 407
18:22:46 9 1017 141 0 NO 0 40 406
18:25:48 9 1017 127 0 NO 0 40.2 405
18:28:46 9 1017 113 1 O 0 40.4 404
18:31:48 9 1017 98 0 NO 0 40.9 408
18:34:46 9 1017 83 2 O 0 41.2 404
18:37:47 8 1017 69 1 NO 0 41.6 404
18:40:46 8 1017 55 0 O 0 41.7 407
18:43:47 8 1017 42 0 SO 0 41.7 407
18:46:45 8 1017 31 0 N 0 42 401
18:49:47 8 1017 21 0 O 0 42.5 404
18:52:48 8 1017 13 3 NO 0 43.1 407
18:55:48 8 1017 8 0 O 0 43.1 407
18:58:45 8 1017 5 0 SW 0 43.1 404
19:01:49 8 1017 3 1 NO 0 43.3 408
19:04:47 8 1017 0 0 NO 0 43.4 404
19:07:47 7 1017 0 0 NO 0 43.4 410
19:10:45 7 1017 0 1 0 43.6 407
19:13:45 7 1017 0 1 NO 0 43.6 406
19:16:46 7 1017 0 1 O 0 43.7 404
19:19:44 7 1017 0 2 NO 0 44.1 404
19:22:48 7 1017 0 1 NO 0 44.8 404
19:25:46 7 1017 0 0 SO 0 44.7 404
19:28:43 7 1017 0 1 O 0 44.8 406
19:31:46 7 1017 0 2 0 45.2 407
19:34:46 7 1017 0 1 NO 0 45.4 406
19:37:45 7 1017 0 2 O 0 45.6 403
19:40:45 7 1017 0 1 N 0 45.6 407
19:43:45 7 1017 0 0 NW 0 45.7 407
19:46:47 7 1017 0 0 SO 0 45.7 407
19:49:44 7 1017 0 1 O 0 46 407
19:52:45 7 1017 0 1 O 0 46.2 407
19:55:48 6 1017 0 1 O 0 46.5 407
19:58:45 6 1017 0 0 NW 0 46.9 404
20:01:47 6 1017 0 0 NO 0 47.4 407
20:04:45 6 1017 0 0 NO 0 47.6 407
20:07:46 6 1017 0 0 W 0 47.3 407
20:10:47 6 1017 0 0 NO 0 47.7 404
20:13:45 5 1017 0 0 O 0 48.2 414
20:16:46 5 1017 0 0 O 0 49 413
20:19:48 5 1017 0 0 NO 0 49.5 416
20:22:45 5 1017 0 0 O 0 49.7 407
20:25:45 5 1017 0 0 O 0 50 407
20:28:46 5 1017 0 0 O 0 49.8 405
20:31:47 5 1017 0 0 O 0 50.1 404
20:34:44 4 1017 0 0 O 0 50.5 404
20:37:45 4 1017 0 0 NO 0 50.7 407
20:40:46 4 1017 0 0 NO 0 51.3 401
20:43:45 4 1017 0 0 NO 0 51.9 407
20:46:45 4 1017 0 1 NO 0 51.6 403
20:49:48 4 1017 0 0 NO 0 52.2 419
20:52:46 4 1017 0 1 N 0 52.1 427
20:55:44 4 1017 0 0 O 0 52.7 433
20:58:46 4 1017 0 0 N 0 52.7 436
21:01:47 4 1017 0 0 NO 0 53.1 436
21:04:45 4 1017 0 0 NO 0 53.1 427
21:07:45 4 1017 0 1 N 0 53.2 427
21:10:45 4 1017 0 0 NW 0 53.3 433
21:13:46 4 1017 0 0 NO 0 53.1 439
21:16:45 4 1017 0 0 NO 0 53.3 445
21:19:46 4 1017 0 0 O 0 53.6 451
21:22:45 4 1017 0 0 NO 0 53.7 453
21:25:45 4 1017 0 0 NO 0 53.8 457
21:28:47 4 1017 0 0 NO 0 54.1 456
21:31:47 4 1017 0 0 NO 0 54.1 465
21:34:45 3 1017 0 0 NO 0 54.2 466
21:37:46 4 1017 0 0 NO 0 54.2 475
21:40:44 3 1017 0 0 NO 0 54.4 477
21:43:47 3 1017 0 1 N 0 54.6 487
21:46:47 3 1017 0 0 NO 0 55.3 493
21:49:47 3 1017 0 0 NO 0 55.3 486
21:52:46 3 1017 0 0 NO 0 55.3 475
21:55:48 3 1017 0 0 NW 0 55.6 471
21:58:46 3 1017 0 0 N 0 56.2 469
22:01:46 3 1017 0 0 N 0 56.6 466
22:04:46 3 1017 0 0 N 0 56.6 468
22:07:48 3 1017 0 0 NO 0 56.9 469
22:10:47 3 1017 0 0 NO 0 56.8 486
22:13:46 3 1017 0 0 N 0 56.8 489
22:16:45 3 1017 0 0 NO 0 57.3 492
22:19:47 3 1017 0 0 NO 0 58.8 492
22:22:48 2 1017 0 0 NO 0 59 494
22:25:47 2 1017 0 0 NO 0 58.8 494
22:28:48 2 1017 0 0 NO 0 59.1 495
22:31:46 2 1017 0 0 NO 0 59.9 492
22:34:45 2 1017 0 0 N 0 60.6 491
22:37:45 2 1017 0 0 N 0 61.5 483
22:40:45 2 1017 0 1 N 0 61.6 490
22:43:46 2 1017 0 0 N 0 62.3 495
22:46:45 2 1017 0 0 N 0 62.5 497
22:49:46 2 1017 0 0 N 0 61.6 507
22:52:45 2 1017 0 0 N 0 61.2 510
22:55:45 2 1017 0 0 N 0 61.1 512
22:58:45 2 1017 0 0 N 0 61.2 512
23:01:45 2 1017 0 0 N 0 62.1 518
23:04:46 2 1017 0 0 N 0 62.7 518
23:07:46 2 1017 0 0 N 0 62.5 529
23:10:45 2 1017 0 0 N 0 62.7 544
23:13:47 2 1017 0 0 N 0 63.1 550
23:16:44 2 1017 0 0 N 0 63.2 557
23:19:45 2 1017 0 0 N 0 63.7 556
23:22:46 2 1017 0 0 N 0 63.8 554
23:25:44 2 1017 0 0 N 0 64.1 551
23:28:47 2 1017 0 0 O 0 63.9 539
23:31:46 1 1017 0 0 O 0 63.8 539
23:34:45 1 1017 0 0 NO 0 64.3 536
23:37:48 1 1017 0 0 NO 0 64.8 536
23:40:46 2 1017 0 0 NO 0 65.1 539
23:43:45 2 1017 0 0 NO 0 64.3 533
23:46:47 2 1017 0 0 NO 0 63.5 527
23:49:47 1 1017 0 0 NO 0 63.3 518
23:52:45 1 1017 0 0 NO 0 63.5 524
23:55:45 1 1017 0 0 NO 0 64 521
23:58:47 1 1017 0 0 NO 0 64.4 521

Letzte Änderung : 04-Jan-2022
Copyright Jens Köhler, Wolfsburg, Obere Dorfstraße 10d